| time (UTC) | temp C | wind direction | speed KPH | gust KPH | rain 1hr cm | rain 24hr cm | rain mn cm | humidity % | barometer mb |
| 20260505070214 | 6 | 304 | 4.8 | 4.8 | 0.00 | 0.00 | 0.00 | 92 | 1009.2 |
| 20260505065715 | 6 | 73 | 0.0 | 3.2 | 0.00 | 0.00 | 0.00 | 91 | 1009.1 |
| 20260505064714 | 7 | 257 | 0.0 | 6.4 | 0.00 | 0.00 | 0.00 | 91 | 1009.0 |
| 20260505064214 | 6 | 297 | 0.0 | 6.4 | 0.00 | 0.00 | 0.00 | 91 | 1009.0 |
| 20260505063714 | 6 | 295 | 4.8 | 6.4 | 0.00 | 0.00 | 0.00 | 91 | 1009.2 |
| 20260505063216 | 6 | 299 | 4.8 | 6.4 | 0.00 | 0.00 | 0.00 | 91 | 1009.0 |
| 20260505062715 | 6 | 256 | 1.6 | 6.4 | 0.00 | 0.00 | 0.00 | 91 | 1008.7 |
| 20260505062215 | 6 | 302 | 4.8 | 6.4 | 0.00 | 0.00 | 0.00 | 90 | 1008.6 |
| 20260505061713 | 6 | 315 | 3.2 | 6.4 | 0.00 | 0.00 | 0.00 | 90 | 1008.8 |
| 20260505061213 | 7 | 301 | 6.4 | 6.4 | 0.00 | 0.00 | 0.00 | 90 | 1009.0 |
| 20260505060713 | 7 | 89 | 0.0 | 6.4 | 0.00 | 0.00 | 0.00 | 90 | 1008.9 |
| 20260505060213 | 7 | 77 | 0.0 | 11.3 | 0.00 | 0.00 | 0.00 | 90 | 1009.1 |
| 20260505055709 | 7 | 287 | 4.8 | 11.3 | 0.00 | 0.00 | 0.00 | 90 | 1009.6 |
| 20260505055208 | 7 | 300 | 8.0 | 8.0 | 0.00 | 0.00 | 0.00 | 90 | 1009.4 |
| 20260505054707 | 7 | 239 | 3.2 | 6.4 | 0.00 | 0.00 | 0.00 | 90 | 1008.8 |
| 20260505054208 | 7 | 238 | 3.2 | 4.8 | 0.00 | 0.00 | 0.00 | 90 | 1008.9 |
| 20260505053705 | 7 | 306 | 1.6 | 9.7 | 0.00 | 0.00 | 0.00 | 89 | 1009.1 |
| 20260505052704 | 7 | 282 | 4.8 | 11.3 | 0.00 | 0.00 | 0.00 | 89 | 1009.7 |
| 20260505052204 | 7 | 307 | 8.0 | 11.3 | 0.00 | 0.00 | 0.00 | 89 | 1009.4 |
| 20260505051704 | 7 | 314 | 4.8 | 8.0 | 0.00 | 0.00 | 0.00 | 89 | 1009.3 |
| 20260505051203 | 7 | 274 | 4.8 | 9.7 | 0.00 | 0.00 | 0.00 | 88 | 1008.9 |
| 20260505050703 | 7 | 268 | 1.6 | 9.7 | 0.00 | 0.00 | 0.00 | 88 | 1008.8 |
| 20260505050201 | 7 | 235 | 8.0 | 8.0 | 0.00 | 0.00 | 0.00 | 87 | 1008.8 |
| 20260505041655 | 7 | 257 | 6.4 | 8.0 | 0.00 | 0.00 | 0.00 | 82 | 1008.8 |
| 20260505041155 | 7 | 283 | 4.8 | 6.4 | 0.00 | 0.00 | 0.00 | 81 | 1008.6 |
| 20260505040655 | 7 | 275 | 4.8 | 12.9 | 0.00 | 0.00 | 0.00 | 81 | 1008.6 |
| 20260505040154 | 7 | 257 | 6.4 | 12.9 | 0.00 | 0.00 | 0.00 | 79 | 1008.7 |
| 20260505035654 | 7 | 237 | 4.8 | 11.3 | 0.00 | 0.00 | 0.00 | 79 | 1008.8 |
| 20260505035141 | 7 | 236 | 6.4 | 11.3 | 0.00 | 0.00 | 0.00 | 79 | 1008.6 |
| 20260505034642 | 7 | 240 | 8.0 | 9.7 | 0.00 | 0.03 | 0.00 | 80 | 1008.7 |
| 20260505034144 | 7 | 244 | 6.4 | 12.9 | 0.00 | 0.03 | 0.00 | 80 | 1008.6 |
| 20260505033641 | 7 | 275 | 4.8 | 12.9 | 0.00 | 0.03 | 0.00 | 80 | 1008.5 |
| 20260505033142 | 7 | 267 | 8.0 | 12.9 | 0.00 | 0.03 | 0.00 | 79 | 1008.7 |
| 20260505032640 | 7 | 232 | 8.0 | 12.9 | 0.00 | 0.03 | 0.00 | 80 | 1008.4 |
| 20260505032139 | 7 | 247 | 6.4 | 12.9 | 0.00 | 0.03 | 0.00 | 80 | 1008.2 |
| 20260505031637 | 7 | 237 | 9.7 | 11.3 | 0.00 | 0.03 | 0.00 | 80 | 1008.2 |
| 20260505031137 | 7 | 279 | 8.0 | 12.9 | 0.00 | 0.03 | 0.00 | 80 | 1008.3 |
| 20260505030637 | 8 | 266 | 6.4 | 17.7 | 0.00 | 0.03 | 0.00 | 80 | 1008.4 |
| 20260505030138 | 8 | 243 | 9.7 | 17.7 | 0.00 | 0.05 | 0.00 | 80 | 1008.3 |
| 20260505025137 | 8 | 240 | 12.9 | 22.5 | 0.00 | 0.05 | 0.05 | 79 | 1008.0 |
| 20260505024638 | 8 | 236 | 12.9 | 22.5 | 0.00 | 0.10 | 0.05 | 78 | 1008.1 |
| 20260505024137 | 8 | 268 | 14.5 | 17.7 | 0.00 | 0.13 | 0.05 | 78 | 1007.9 |
| 20260505023638 | 8 | 252 | 12.9 | 17.7 | 0.00 | 0.15 | 0.05 | 78 | 1008.0 |
| 20260505023135 | 8 | 248 | 14.5 | 17.7 | 0.00 | 0.18 | 0.05 | 77 | 1008.0 |
| 20260505022130 | 8 | 256 | 6.4 | 25.7 | 0.00 | 0.23 | 0.05 | 77 | 1007.9 |
| 20260505021630 | 8 | 256 | 11.3 | 25.7 | 0.00 | 0.23 | 0.05 | 77 | 1007.9 |
| 20260505021131 | 8 | 249 | 12.9 | 24.1 | 0.00 | 0.28 | 0.05 | 77 | 1007.9 |
| 20260505020129 | 8 | 265 | 6.4 | 20.9 | 0.00 | 0.33 | 0.05 | 77 | 1007.7 |
| 20260505015628 | 8 | 249 | 8.0 | 22.5 | 0.00 | 0.33 | 0.05 | 77 | 1007.7 |
| 20260505015126 | 8 | 239 | 11.3 | 24.1 | 0.00 | 0.41 | 0.05 | 77 | 1007.9 |
| 20260505014625 | 8 | 228 | 14.5 | 24.1 | 0.00 | 0.43 | 0.05 | 77 | 1007.9 |
| 20260505014123 | 8 | 265 | 12.9 | 25.7 | 0.00 | 0.46 | 0.05 | 77 | 1007.6 |
| 20260505013623 | 8 | 205 | 20.9 | 25.7 | 0.00 | 0.48 | 0.05 | 78 | 1007.6 |
| 20260505013124 | 8 | 231 | 19.3 | 24.1 | 0.00 | 0.51 | 0.05 | 78 | 1007.5 |
| 20260505012623 | 8 | 232 | 14.5 | 24.1 | 0.00 | 0.58 | 0.05 | 78 | 1007.5 |
| 20260505012122 | 8 | 229 | 16.1 | 22.5 | 0.00 | 0.64 | 0.05 | 78 | 1007.5 |
| 20260505011619 | 8 | 239 | 12.9 | 27.4 | 0.00 | 0.66 | 0.05 | 77 | 1007.4 |
| 20260505011117 | 8 | 240 | 12.9 | 27.4 | 0.00 | 0.69 | 0.05 | 77 | 1007.1 |
| 20260505010615 | 8 | 260 | 8.0 | 24.1 | 0.00 | 0.74 | 0.05 | 77 | 1007.1 |
| 20260505010127 | 8 | 258 | 4.8 | 24.1 | 0.00 | 0.76 | 0.05 | 77 | 1007.1 |
| 20260505005613 | 8 | 248 | 12.9 | 24.1 | 0.00 | 0.79 | 0.05 | 76 | 1007.1 |
| 20260505005109 | 8 | 249 | 17.7 | 25.7 | 0.00 | 0.84 | 0.05 | 76 | 1007.2 |
| 20260505004609 | 9 | 255 | 9.7 | 25.7 | 0.00 | 0.86 | 0.05 | 76 | 1007.0 |
| 20260505003107 | 9 | 236 | 9.7 | 22.5 | 0.00 | 1.02 | 0.05 | 76 | 1006.4 |
| 20260505002606 | 9 | 246 | 11.3 | 24.1 | 0.00 | 1.04 | 0.05 | 75 | 1006.5 |
| 20260505002106 | 9 | 234 | 9.7 | 24.1 | 0.00 | 1.09 | 0.05 | 75 | 1006.6 |
| 20260505001607 | 9 | 268 | 9.7 | 24.1 | 0.00 | 1.12 | 0.05 | 75 | 1006.4 |
| 20260505001104 | 9 | 231 | 12.9 | 22.5 | 0.00 | 1.14 | 0.05 | 74 | 1006.1 |
| 20260505000603 | 9 | 235 | 8.0 | 22.5 | 0.00 | 1.19 | 0.05 | 74 | 1006.1 |
| 20260504235600 | 9 | 272 | 9.7 | 20.9 | 0.00 | 1.30 | 0.05 | 73 | 1005.9 |
| 20260504235100 | 9 | 280 | 14.5 | 20.9 | 0.00 | 1.30 | 0.05 | 73 | 1005.8 |
| 20260504234600 | 9 | 255 | 11.3 | 22.5 | 0.00 | 1.37 | 0.05 | 72 | 1005.7 |
| 20260504234057 | 10 | 259 | 14.5 | 22.5 | 0.00 | 1.40 | 0.05 | 72 | 1005.6 |
| 20260504233553 | 10 | 293 | 9.7 | 24.1 | 0.00 | 1.47 | 0.05 | 72 | 1005.5 |
| 20260504233053 | 10 | 247 | 12.9 | 24.1 | 0.00 | 1.50 | 0.05 | 71 | 1005.2 |
| 20260504232554 | 10 | 268 | 12.9 | 22.5 | 0.00 | 1.55 | 0.05 | 71 | 1005.4 |
| 20260504232053 | 10 | 243 | 17.7 | 22.5 | 0.00 | 1.57 | 0.05 | 70 | 1005.3 |
| 20260504231551 | 10 | 235 | 16.1 | 19.3 | 0.00 | 1.65 | 0.05 | 70 | 1005.1 |
| 20260504231052 | 10 | 236 | 11.3 | 20.9 | 0.00 | 1.68 | 0.05 | 70 | 1005.2 |
| 20260504230604 | 10 | 249 | 14.5 | 20.9 | 0.00 | 1.68 | 0.05 | 70 | 1005.1 |
| 20260504230058 | 10 | 249 | 14.5 | 20.9 | 0.00 | 1.70 | 0.05 | 69 | 1005.0 |
| 20260504225550 | 10 | 262 | 9.7 | 25.7 | 0.00 | 1.75 | 0.05 | 69 | 1004.8 |
| 20260504225050 | 10 | 232 | 9.7 | 25.7 | 0.00 | 1.80 | 0.05 | 69 | 1004.8 |
| 20260504224547 | 10 | 248 | 6.4 | 24.1 | 0.00 | 1.83 | 0.05 | 69 | 1004.6 |
| 20260504224048 | 10 | 250 | 12.9 | 17.7 | 0.00 | 1.88 | 0.05 | 70 | 1004.9 |
| 20260504223547 | 10 | 226 | 8.0 | 17.7 | 0.00 | 1.93 | 0.05 | 70 | 1004.5 |
| 20260504223046 | 10 | 238 | 12.9 | 17.7 | 0.00 | 1.98 | 0.05 | 69 | 1004.6 |
| 20260504222547 | 10 | 248 | 4.8 | 22.5 | 0.00 | 2.03 | 0.05 | 70 | 1004.4 |
| 20260504222045 | 10 | 236 | 14.5 | 22.5 | 0.00 | 2.11 | 0.05 | 69 | 1004.5 |
| 20260504221539 | 10 | 256 | 6.4 | 17.7 | 0.00 | 2.13 | 0.05 | 69 | 1004.4 |
| 20260504221051 | 10 | 237 | 6.4 | 25.7 | 0.00 | 2.16 | 0.05 | 68 | 1004.5 |
| 20260504220538 | 10 | 262 | 11.3 | 25.7 | 0.00 | 2.18 | 0.05 | 68 | 1004.4 |
| 20260504220037 | 10 | 244 | 12.9 | 19.3 | 0.00 | 2.18 | 0.05 | 68 | 1004.8 |
| 20260504215537 | 10 | 264 | 9.7 | 24.1 | 0.00 | 2.26 | 0.05 | 69 | 1004.6 |
| 20260504215038 | 10 | 250 | 14.5 | 24.1 | 0.00 | 2.29 | 0.05 | 69 | 1004.7 |
| 20260504214538 | 10 | 253 | 14.5 | 24.1 | 0.00 | 2.31 | 0.05 | 69 | 1004.8 |
| 20260504214037 | 10 | 239 | 9.7 | 24.1 | 0.00 | 2.36 | 0.05 | 68 | 1004.8 |
| 20260504213036 | 10 | 236 | 17.7 | 24.1 | 0.00 | 2.44 | 0.05 | 69 | 1004.7 |
| 20260504212550 | 10 | 286 | 8.0 | 24.1 | 0.00 | 2.49 | 0.05 | 69 | 1004.8 |
| 20260504212041 | 10 | 229 | 16.1 | 22.5 | 0.00 | 2.54 | 0.05 | 68 | 1004.7 |
| 20260504211532 | 10 | 226 | 16.1 | 30.6 | 0.00 | 2.57 | 0.05 | 68 | 1004.8 |
| 20260504211032 | 10 | 227 | 16.1 | 30.6 | 0.00 | 2.57 | 0.05 | 69 | 1004.8 |
| 20260504210532 | 10 | 221 | 14.5 | 27.4 | 0.00 | 2.59 | 0.05 | 68 | 1004.9 |
| 20260504205530 | 10 | 255 | 9.7 | 30.6 | 0.00 | 2.62 | 0.05 | 66 | 1004.7 |
| 20260504205030 | 10 | 249 | 11.3 | 30.6 | 0.00 | 2.64 | 0.05 | 68 | 1004.6 |
| 20260504204532 | 10 | 244 | 9.7 | 37.0 | 0.00 | 2.64 | 0.05 | 67 | 1004.6 |
| 20260504204030 | 10 | 230 | 16.1 | 37.0 | 0.00 | 2.67 | 0.05 | 66 | 1004.6 |
| 20260504203529 | 10 | 264 | 9.7 | 41.8 | 0.00 | 2.67 | 0.05 | 65 | 1004.7 |
| 20260504203029 | 10 | 240 | 11.3 | 41.8 | 0.00 | 2.67 | 0.05 | 65 | 1004.5 |
| 20260504202527 | 10 | 251 | 14.5 | 40.2 | 0.00 | 2.72 | 0.05 | 66 | 1004.5 |
| 20260504202025 | 10 | 248 | 19.3 | 40.2 | 0.00 | 2.74 | 0.05 | 67 | 1004.6 |
| 20260504201525 | 10 | 229 | 14.5 | 37.0 | 0.00 | 2.74 | 0.05 | 68 | 1004.6 |
| 20260504201025 | 10 | 226 | 12.9 | 45.1 | 0.00 | 2.77 | 0.05 | 67 | 1004.7 |
| 20260504200020 | 11 | 243 | 8.0 | 43.5 | 0.00 | 2.82 | 0.05 | 64 | 1004.2 |
| 20260504195518 | 11 | 228 | 12.9 | 38.6 | 0.00 | 2.82 | 0.05 | 63 | 1004.2 |
| 20260504195018 | 12 | 264 | 12.9 | 40.2 | 0.00 | 2.82 | 0.05 | 62 | 1004.4 |
| 20260504194517 | 12 | 260 | 22.5 | 40.2 | 0.00 | 2.87 | 0.05 | 61 | 1004.0 |
| 20260504194014 | 12 | 230 | 19.3 | 40.2 | 0.00 | 2.87 | 0.05 | 61 | 1003.7 |
| 20260504193513 | 12 | 255 | 20.9 | 46.7 | 0.00 | 2.92 | 0.05 | 60 | 1003.9 |
| 20260504193014 | 12 | 237 | 17.7 | 46.7 | 0.00 | 2.95 | 0.05 | 59 | 1003.8 |
| 20260504192513 | 12 | 255 | 20.9 | 57.9 | 0.00 | 2.95 | 0.05 | 58 | 1003.8 |
| 20260504192011 | 13 | 131 | 16.1 | 57.9 | 0.00 | 3.02 | 0.05 | 57 | 1003.6 |
| 20260504191510 | 13 | 229 | 29.0 | 45.1 | 0.00 | 3.05 | 0.05 | 53 | 1003.6 |
| 20260504191010 | 13 | 221 | 32.2 | 45.1 | 0.00 | 3.07 | 0.05 | 53 | 1003.8 |
| 20260504190512 | 13 | 255 | 22.5 | 45.1 | 0.00 | 3.15 | 0.05 | 53 | 1003.5 |
| 20260504190011 | 13 | 234 | 24.1 | 40.2 | 0.00 | 3.17 | 0.05 | 52 | 1003.5 |
| 20260504185510 | 13 | 247 | 19.3 | 45.1 | 0.00 | 3.20 | 0.05 | 52 | 1003.5 |
| 20260504185011 | 12 | 256 | 25.7 | 45.1 | 0.00 | 3.20 | 0.05 | 53 | 1003.3 |
| 20260504184511 | 13 | 242 | 35.4 | 40.2 | 0.00 | 3.23 | 0.05 | 50 | 1003.5 |
| 20260504184010 | 13 | 248 | 16.1 | 45.1 | 0.00 | 3.28 | 0.05 | 52 | 1003.5 |
| 20260504183508 | 12 | 240 | 24.1 | 45.1 | 0.00 | 3.28 | 0.05 | 51 | 1003.4 |
| 20260504183006 | 12 | 232 | 27.4 | 45.1 | 0.00 | 3.33 | 0.05 | 50 | 1003.8 |
| 20260504182505 | 12 | 251 | 24.1 | 40.2 | 0.00 | 3.35 | 0.05 | 49 | 1003.8 |
| 20260504182002 | 13 | 244 | 19.3 | 46.7 | 0.00 | 3.35 | 0.05 | 49 | 1003.7 |
| 20260504181500 | 13 | 235 | 30.6 | 46.7 | 0.00 | 3.38 | 0.05 | 47 | 1003.6 |
| 20260504181001 | 13 | 231 | 29.0 | 53.1 | 0.00 | 3.40 | 0.05 | 46 | 1003.8 |
| 20260504180459 | 13 | 256 | 20.9 | 53.1 | 0.00 | 3.45 | 0.05 | 45 | 1004.1 |
| 20260504175958 | 13 | 228 | 11.3 | 48.3 | 0.00 | 3.45 | 0.05 | 44 | 1003.7 |
| 20260504175458 | 13 | 237 | 17.7 | 41.8 | 0.00 | 3.45 | 0.05 | 39 | 1003.7 |
| 20260504174955 | 13 | 256 | 24.1 | 41.8 | 0.00 | 3.48 | 0.05 | 38 | 1003.7 |
| 20260504174453 | 13 | 194 | 17.7 | 41.8 | 0.00 | 3.51 | 0.05 | 42 | 1003.4 |
| 20260504173953 | 13 | 238 | 25.7 | 43.5 | 0.00 | 3.53 | 0.05 | 39 | 1003.7 |
| 20260504173453 | 14 | 242 | 14.5 | 43.5 | 0.00 | 3.56 | 0.05 | 42 | 1003.8 |
| 20260504172952 | 13 | 222 | 12.9 | 38.6 | 0.00 | 3.61 | 0.05 | 42 | 1003.7 |
| 20260504172451 | 13 | 219 | 9.7 | 38.6 | 0.00 | 3.63 | 0.05 | 39 | 1003.7 |
| 20260504171951 | 14 | 247 | 24.1 | 33.8 | 0.00 | 3.66 | 0.05 | 39 | 1003.8 |
| 20260504170949 | 13 | 252 | 17.7 | 40.2 | 0.00 | 3.73 | 0.05 | 40 | 1003.7 |
| 20260504170448 | 13 | 216 | 29.0 | 40.2 | 0.00 | 3.78 | 0.05 | 39 | 1003.7 |
| 20260504160432 | 13 | 240 | 20.9 | 32.2 | 0.00 | 4.75 | 0.05 | 41 | 1004.3 |
| 20260504150920 | 11 | 221 | 32.2 | 40.2 | 0.00 | 5.66 | 0.05 | 37 | 1004.6 |
| 20260504150418 | 11 | 244 | 17.7 | 40.2 | 0.00 | 5.69 | 0.05 | 40 | 1004.7 |
| 20260504140916 | 9 | 268 | 24.1 | 46.7 | 0.00 | 5.99 | 0.05 | 49 | 1004.9 |
| 20260504140415 | 9 | 266 | 19.3 | 46.7 | 0.00 | 6.05 | 0.05 | 54 | 1004.9 |
| 20260504130403 | 7 | 269 | 20.9 | 32.2 | 0.00 | 6.10 | 0.05 | 64 | 1004.6 |
| 20260504110335 | 5 | 271 | 22.5 | 29.0 | 0.00 | 6.10 | 0.05 | 79 | 1002.7 |
| 20260504100321 | 5 | 227 | 19.3 | 25.7 | 0.00 | 6.12 | 0.05 | 84 | 1001.7 |
| 20260504081805 | 5 | 270 | 17.7 | 27.4 | 0.00 | 6.12 | 0.05 | 90 | 999.2 |
| 20260504081306 | 5 | 290 | 19.3 | 27.4 | 0.00 | 6.12 | 0.05 | 90 | 999.4 |
| 20260504080804 | 5 | 260 | 17.7 | 29.0 | 0.00 | 6.12 | 0.05 | 90 | 999.3 |
| 20260504080304 | 5 | 276 | 19.3 | 29.0 | 0.00 | 6.12 | 0.05 | 90 | 999.2 |